SCP
0 0 0 0 0 0 0 0 0 0 0 0 0 0 0 0 0 0 0 0 0 0 0 0 0 0 0 1 1 1 1 1 1 1 1 1 1 1 1 1 1 1 1
0 0 0 0 0 0 0 0 0 0 0 0 0 0 0 0 0 0 0 0 0 0 0 0 1 0 1 1 1 1 1 1 1 1 1 1 1 1 1 1 1 1 1
0 0 0 0 0 0 0 0 0 0 0 0 0 0 0 0 0 0 0 0 0 0 0 0 0 0 1 1 1 1 2 1 2 2 1 1 1 1 1 1 1 2 2
0 0 0 0 0 0 0 0 0 0 0 0 0 0 0 0 0 0 0 0 0 0 0 0 0 0 1 1 1 1 1 1 1 1 1 1 1 1 1 1 1 1 2
0 0 0 0 0 0 0 0 0 0 0 0 0 0 0 0 0 0 0 0 0 0 0 0 0 0 0 0 0 1 1 1 1 1 1 1 1 1 1 1 1 1 2
0 0 0 0 0 0 0 0 0 0 0 0 0 0 0 0 0 0 0 0 0 0 0 0 0 0 0 0 0 0 1 1 1 1 1 1 1 1 1 1 1 1 2
0 0 0 0 0 0 0 0 0 0 0 0 0 0 0 0 0 0 0 0 0 0 0 0 0 0 0 -0 0 0 0 0 1 1 1 1 1 1 1 1 1 1 2
0 0 0 0 0 -0 0 0 0 0 0 0 0 0 0 -0 0 0 0 0 0 -0 0 0 0 0 0 0 0 0 0 0 0 1 1 1 1 1 1 1 1 1 1
0 0 0 0 0 -0 -0 0 0 0 0 0 0 0 0 0 0 0 0 0 -0 -0 -0 0 0 0 0 0 0 0 -0 0 0 0 1 1 1 1 1 1 1 1 1
0 0 0 0 0 0 0 0 -0 -0 -0 0 0 0 0 0 0 -0 0 0 -0 -0 -0 0 -0 -0 0 -0 -0 -0 -0 -0 0 0 0 1 1 1 2 1 1 1 1
0 -0 0 0 0 0 -0 0 0 -0 -0 -0 -0 0 0 0 0 0 0 0 -0 0 0 -0 -0 -0 -0 -0 -0 -0 0 -0 0 0 0 0 1 1 1 1 1 0 0
0 0 -0 0 0 0 -0 -0 0 0 -0 -0 -0 0 0 0 0 0 0 0 0 0 0 0 0 0 0 0 -0 -0 -0 -0 0 0 0 0 0 0 1 1 1 0 0
0 -0 -0 -0 -0 0 0 0 0 0 0 -0 -0 0 0 0 0 0 0 0 0 0 0 0 0 0 0 0 -0 -0 0 0 0 0 0 0 0 0 0 0 0 0 0
-0 0 -0 -0 0 0 0 0 0 -0 0 0 0 -0 -0 0 0 0 0 0 0 0 0 0 0 0 0 0 0 0 0 -0 0 0 0 0 0 0 0 0 0 0 0
0 0 -0 -0 -0 0 0 0 -0 0 0 0 0 0 0 0 0 0 0 0 0 -0 -0 0 0 0 0 0 -0 0 0 0 -0 0 0 0 0 0 0 0 0 0 0
0 0 0 0 0 0 0 0 0 0 0 0 0 0 0 0 -0 -0 0 -0 -0 -0 0 -0 -0 -0 0 0 0 0 0 0 -0 0 0 0 0 0 0 0 0 0 0
0 0 0 0 0 0 0 0 -0 0 0 -0 0 0 0 0 0 0 -0 -0 -0 -0 -0 -0 0 0 0 0 0 0 0 0 0 0 0 -0 0 0 0 0 0 0 0
0 0 0 0 0 0 0 0 0 0 0 0 0 0 -0 0 0 -0 -0 -0 0 0 -0 -0 -0 0 -0 0 0 0 -0 0 0 0 0 0 0 0 0 0 0 0 0
0 0 0 0 0 0 0 0 0 0 0 0 0 0 0 0 0 0 0 0 -0 -0 0 -0 -0 0 0 0 -0 -0 -0 -0 -0 -0 -0 -0 0 -0 -0 -0 0 0 0
0 0 0 0 0 0 0 0 0 0 0 0 0 0 0 0 0 0 0 0 -0 -0 -0 -0 -0 -0 -0 -0 -0 -0 0 0 0 0 -0 -0 -0 -0 -0 -0 -0 -0 0
0 0 0 0 0 0 0 0 0 0 0 0 0 0 0 0 0 0 0 0 0 -0 -0 -0 -0 -0 -0 0 -0 -0 -0 0 0 0 0 0 0 0 -0 0 0 0 0
1 1 1 1 1 0 0 0 0 0 0 0 0 0 0 0 0 0 0 0 0 0 -0 -0 -0 -0 -0 -0 -0 -0 -0 0 0 0 0 -0 0 0 -0 0 0 0 0
1 1 1 1 0 0 0 0 0 0 0 0 1 1 1 0 0 0 0 0 0 0 0 0 0 -0 -0 -0 0 -0 -0 -0 -0 -0 -0 -0 0 -0 -0 0 0 0 0
0 0 0 0 0 0 0 0 0 1 1 0 0 0 0 0 0 0 0 0 0 0 0 0 0 0 0 0 0 0 -0 -0 -0 -0 0 -0 0 0 0 0 0 0 0
0 0 0 0 0 0 0 0 0 0 0 0 0 0 0 0 0 0 0 0 0 0 0 0 0 0 0 0 0 0 -0 0 0 0 0 0 0 0 0 0 0 0 0
0 0 0 0 0 0 0 0 0 0 0 0 0 0 0 0 0 0 0 0 0 0 0 0 0 0 0 0 0 0 0 0 0 0 1 0 1 0 0 0 0 0 0
Wind_Speed_500mb
18 14 14 12 14 14 13 15 15 16 17 14 14 15 15 16 18 17 15 25 26 27 29 30 30 28 28 28 29 31 32 35 36 37 36 33 30 26 24 23 23 24 23
14 12 10 10 11 12 10 13 15 15 17 16 16 14 14 14 15 19 16 22 27 29 30 29 28 27 26 26 28 29 32 34 35 37 40 40 36 30 23 21 20 21 20
14 14 8 11 9 10 15 12 15 17 16 15 16 13 13 13 12 14 15 14 19 27 27 27 26 24 24 26 29 31 33 33 36 39 41 43 40 35 27 20 18 17 15
17 14 11 10 9 11 11 12 14 12 12 11 11 10 10 12 11 12 12 14 12 12 19 22 23 25 26 28 31 33 33 33 33 37 41 43 42 37 33 23 18 18 11
15 10 10 6 14 10 10 11 9 9 7 7 8 10 9 10 11 9 11 13 11 13 12 14 19 21 23 27 31 32 31 31 31 35 40 42 45 45 38 27 19 18 14
13 16 6 10 15 11 10 8 9 5 6 3 5 7 10 11 11 9 8 11 9 10 8 11 10 12 22 26 29 31 34 31 30 35 38 40 42 46 45 35 26 20 18
12 13 11 9 12 11 9 6 6 7 6 5 5 7 8 11 10 9 8 8 5 7 6 6 11 11 13 24 28 31 34 33 31 35 38 39 39 42 43 39 29 22 20
11 9 14 9 14 6 8 8 10 8 8 8 6 6 8 10 8 6 6 6 6 6 5 7 8 12 14 16 22 32 37 36 31 33 38 40 40 38 41 39 35 27 22
11 13 16 13 11 12 7 8 6 9 7 10 13 4 6 6 6 4 4 2 6 5 4 4 7 9 12 14 20 25 35 37 35 34 38 36 39 39 36 36 33 32 27
14 12 17 16 14 10 11 5 5 9 13 7 10 13 16 10 1 10 3 1 3 1 3 4 6 10 11 12 20 28 34 38 34 32 33 35 36 43 37 33 31 29 30
14 13 19 20 17 8 11 11 6 13 7 10 8 6 9 11 13 2 6 3 3 0 4 5 4 8 13 10 15 24 33 36 36 30 30 31 34 41 42 31 30 27 25
14 15 15 18 18 12 11 11 11 10 9 7 7 8 6 5 9 7 3 1 1 3 4 7 6 6 10 11 19 25 32 36 36 31 29 31 34 39 42 33 27 26 25
9 10 16 14 10 18 15 16 14 11 7 7 7 2 4 5 5 6 5 4 5 6 5 5 8 8 9 14 19 30 35 38 38 33 30 31 33 38 41 34 27 27 24
11 15 12 13 12 16 13 17 13 13 12 7 9 10 5 5 5 7 7 9 13 7 11 7 11 12 17 21 27 34 30 40 38 33 29 31 34 38 40 36 28 24 27
18 14 13 13 13 13 13 16 12 14 18 15 12 14 11 12 10 11 11 12 13 23 20 10 13 19 21 27 35 34 32 36 40 38 34 34 36 40 38 31 30 26 25
18 19 15 12 14 15 14 13 14 17 17 14 13 18 18 14 16 16 17 19 19 21 28 26 26 30 30 34 32 39 34 35 35 39 36 34 34 34 31 28 26 26 25
16 17 16 14 8 13 15 15 15 18 16 14 15 15 15 18 15 18 22 22 23 23 29 31 30 31 33 33 33 29 27 26 27 38 36 34 31 24 28 30 30 31 31
19 18 16 15 10 11 12 14 13 15 16 14 14 15 15 14 18 15 16 20 19 22 25 29 29 29 29 31 30 30 26 25 29 28 42 36 31 29 33 33 34 37 39
22 18 18 18 17 13 12 11 14 14 13 14 14 15 16 16 18 18 18 16 17 19 23 26 29 25 29 29 29 29 27 28 28 34 37 33 40 37 34 32 36 40 39
30 24 23 20 21 22 19 17 15 15 15 15 16 16 17 18 20 20 19 24 20 24 25 26 29 30 30 28 27 31 32 32 35 36 35 32 40 42 42 40 34 30 31
31 29 23 21 21 19 19 25 21 20 17 16 18 18 18 23 23 24 25 25 25 23 25 30 31 30 29 25 31 32 36 38 39 39 39 36 39 34 29 31 27 38 37
27 29 27 24 23 21 31 28 28 23 18 15 16 15 17 21 19 28 30 30 29 32 32 31 32 35 35 32 34 36 39 42 46 36 40 47 38 35 30 27 33 42 35
22 23 20 21 27 30 29 29 29 26 23 18 19 16 13 26 28 30 32 32 34 36 40 42 44 39 41 39 42 43 41 43 47 48 40 43 39 35 36 33 43 41 29
16 12 14 13 15 16 17 22 23 29 31 28 29 29 27 32 34 31 32 35 36 31 31 35 39 46 49 53 52 53 54 53 46 39 38 46 42 41 36 38 40 44 27
24 27 28 26 18 15 13 10 11 17 23 23 22 22 17 15 11 18 29 33 30 26 24 41 45 45 48 47 46 48 36 40 41 38 35 45 36 38 38 41 26 34 45
37 37 33 29 23 17 17 13 9 7 11 11 11 9 10 14 16 15 17 21 28 28 28 27 27 26 27 27 27 32 24 31 35 37 30 45 43 38 43 31 28 41 36
Wind_Direction_500mb
116 118 112 110 104 88 80 65 63 67 68 74 83 82 76 75 78 83 73 81 87 88 88 85 80 72 64 56 47 38 31 27 21 17 9 360 351 340 327 316 305 298 289
114 113 106 107 96 95 87 72 76 80 80 74 75 82 80 76 81 87 92 79 86 88 88 85 78 70 62 51 38 30 26 22 18 15 13 12 7 359 350 336 330 308 293
134 118 115 119 114 106 87 65 79 84 83 78 74 68 72 79 81 89 88 99 75 88 89 85 77 67 55 43 35 28 25 20 18 17 17 17 14 8 4 357 345 338 307
134 115 103 121 129 108 91 99 100 93 84 80 76 75 79 86 95 92 96 98 100 93 67 78 76 68 57 45 35 27 23 20 17 20 23 22 21 15 12 12 5 358 354
139 119 119 124 124 115 115 106 87 93 83 73 63 64 87 102 94 104 96 92 96 96 97 75 74 56 48 38 29 21 15 13 19 21 25 23 23 21 19 18 13 6 12
156 134 120 123 125 119 108 117 101 72 80 31 83 88 102 99 105 106 109 99 107 85 82 84 50 28 40 32 25 19 16 15 22 23 23 22 23 24 24 23 18 18 20
139 136 144 118 127 140 134 93 61 63 61 41 111 110 106 91 92 104 117 121 132 100 102 74 54 43 22 25 21 21 20 21 21 22 21 17 19 22 23 26 26 16 9
158 144 147 142 146 163 150 127 100 91 59 75 109 131 139 125 108 116 122 122 143 124 103 59 48 42 37 26 16 23 21 18 13 15 15 13 13 13 18 24 26 27 22
185 173 167 170 163 133 164 119 90 101 84 63 70 89 186 112 157 123 89 128 127 127 106 28 18 12 21 20 23 13 15 15 16 14 12 15 14 10 8 16 21 26 28
194 188 186 181 166 176 175 159 112 103 103 100 81 70 72 98 70 152 121 116 137 109 326 17 351 356 8 10 1 4 7 8 8 10 12 13 11 9 2 4 11 17 25
195 209 196 189 188 160 200 183 153 146 90 100 107 95 68 64 58 84 104 99 150 57 343 356 350 3 355 3 355 354 357 1 2 3 2 360 358 357 357 353 359 4 12
199 190 188 197 206 203 213 197 195 181 156 126 101 85 86 70 53 43 73 64 315 332 332 344 335 347 355 354 342 343 350 356 359 355 348 348 351 350 354 349 342 350 359
190 214 203 207 218 208 205 205 211 206 203 192 158 120 38 41 36 22 353 18 314 324 325 330 1 7 338 343 329 340 343 343 349 350 340 338 346 348 350 350 336 335 344
195 199 198 199 196 187 207 217 227 212 234 239 245 234 256 302 338 342 334 327 304 258 290 301 312 320 326 324 326 330 327 325 333 333 330 333 340 342 345 349 343 326 332
205 209 195 193 191 191 204 212 204 217 230 241 258 266 255 267 280 282 294 301 302 298 295 310 310 311 316 320 313 319 321 311 318 317 314 318 327 332 336 342 348 338 320
197 204 202 215 214 219 220 226 233 237 235 236 248 256 253 256 272 280 279 278 280 282 288 287 302 300 301 312 312 314 320 335 327 324 325 322 322 326 331 335 336 340 339
224 208 215 211 210 225 237 232 221 220 232 238 243 259 262 257 263 271 278 275 273 276 281 287 289 300 308 314 312 318 330 331 321 319 335 334 332 329 331 326 325 325 324
240 225 221 224 243 248 244 225 216 227 236 242 246 249 256 267 274 286 279 275 268 271 279 289 299 309 310 315 316 323 323 324 314 320 325 332 327 324 323 316 314 315 318
242 245 247 248 239 239 228 230 218 220 232 238 237 245 250 262 275 267 266 271 288 288 291 293 296 306 308 315 314 322 321 326 328 315 325 326 317 322 319 309 308 309 313
245 246 248 245 239 239 236 235 241 241 243 247 248 255 261 262 272 273 272 269 282 281 286 296 297 303 306 309 310 319 317 321 318 322 319 322 326 327 328 331 325 323 323
239 241 237 241 238 233 238 236 238 245 246 243 247 263 272 267 268 272 273 277 274 281 286 288 293 298 305 310 308 313 314 313 318 319 314 316 320 317 318 321 317 321 327
219 222 230 236 236 222 241 246 245 245 245 241 244 253 253 272 265 260 261 264 275 286 287 285 288 291 296 302 304 300 303 308 310 313 309 312 316 314 315 318 293 306 319
211 218 220 221 246 250 251 246 244 240 241 240 237 239 243 256 272 278 282 281 276 279 279 281 283 284 287 293 290 299 302 300 301 302 314 314 318 315 313 310 304 309 310
177 171 211 219 236 244 246 240 235 232 236 248 263 266 266 275 281 286 286 285 282 279 281 280 280 283 287 289 293 294 297 301 302 311 308 303 310 309 313 312 310 313 312
233 231 233 232 231 244 246 238 236 239 241 248 253 262 262 277 290 314 313 304 297 293 287 289 287 289 291 292 293 295 301 293 295 301 305 302 306 306 307 311 320 317 320
222 237 247 243 230 234 235 226 190 192 218 222 216 222 260 285 301 314 318 318 314 308 307 302 308 317 320 319 330 325 317 309 305 305 301 301 307 308 307 301 302 306 308
Wind_Speed_850mb
18 14 14 12 14 14 13 15 15 16 17 14 14 15 15 16 18 17 15 25 26 27 29 30 30 28 28 28 29 31 32 35 36 37 36 33 30 26 24 23 23 24 23
14 12 10 10 11 12 10 13 15 15 17 16 16 14 14 14 15 19 16 22 27 29 30 29 28 27 26 26 28 29 32 34 35 37 40 40 36 30 23 21 20 21 20
14 14 8 11 9 10 15 12 15 17 16 15 16 13 13 13 12 14 15 14 19 27 27 27 26 24 24 26 29 31 33 33 36 39 41 43 40 35 27 20 18 17 15
17 14 11 10 9 11 11 12 14 12 12 11 11 10 10 12 11 12 12 14 12 12 19 22 23 25 26 28 31 33 33 33 33 37 41 43 42 37 33 23 18 18 11
15 10 10 6 14 10 10 11 9 9 7 7 8 10 9 10 11 9 11 13 11 13 12 14 19 21 23 27 31 32 31 31 31 35 40 42 45 45 38 27 19 18 14
13 16 6 10 15 11 10 8 9 5 6 3 5 7 10 11 11 9 8 11 9 10 8 11 10 12 22 26 29 31 34 31 30 35 38 40 42 46 45 35 26 20 18
12 13 11 9 12 11 9 6 6 7 6 5 5 7 8 11 10 9 8 8 5 7 6 6 11 11 13 24 28 31 34 33 31 35 38 39 39 42 43 39 29 22 20
11 9 14 9 14 6 8 8 10 8 8 8 6 6 8 10 8 6 6 6 6 6 5 7 8 12 14 16 22 32 37 36 31 33 38 40 40 38 41 39 35 27 22
11 13 16 13 11 12 7 8 6 9 7 10 13 4 6 6 6 4 4 2 6 5 4 4 7 9 12 14 20 25 35 37 35 34 38 36 39 39 36 36 33 32 27
14 12 17 16 14 10 11 5 5 9 13 7 10 13 16 10 1 10 3 1 3 1 3 4 6 10 11 12 20 28 34 38 34 32 33 35 36 43 37 33 31 29 30
14 13 19 20 17 8 11 11 6 13 7 10 8 6 9 11 13 2 6 3 3 0 4 5 4 8 13 10 15 24 33 36 36 30 30 31 34 41 42 31 30 27 25
14 15 15 18 18 12 11 11 11 10 9 7 7 8 6 5 9 7 3 1 1 3 4 7 6 6 10 11 19 25 32 36 36 31 29 31 34 39 42 33 27 26 25
9 10 16 14 10 18 15 16 14 11 7 7 7 2 4 5 5 6 5 4 5 6 5 5 8 8 9 14 19 30 35 38 38 33 30 31 33 38 41 34 27 27 24
11 15 12 13 12 16 13 17 13 13 12 7 9 10 5 5 5 7 7 9 13 7 11 7 11 12 17 21 27 34 30 40 38 33 29 31 34 38 40 36 28 24 27
18 14 13 13 13 13 13 16 12 14 18 15 12 14 11 12 10 11 11 12 13 23 20 10 13 19 21 27 35 34 32 36 40 38 34 34 36 40 38 31 30 26 25
18 19 15 12 14 15 14 13 14 17 17 14 13 18 18 14 16 16 17 19 19 21 28 26 26 30 30 34 32 39 34 35 35 39 36 34 34 34 31 28 26 26 25
16 17 16 14 8 13 15 15 15 18 16 14 15 15 15 18 15 18 22 22 23 23 29 31 30 31 33 33 33 29 27 26 27 38 36 34 31 24 28 30 30 31 31
19 18 16 15 10 11 12 14 13 15 16 14 14 15 15 14 18 15 16 20 19 22 25 29 29 29 29 31 30 30 26 25 29 28 42 36 31 29 33 33 34 37 39
22 18 18 18 17 13 12 11 14 14 13 14 14 15 16 16 18 18 18 16 17 19 23 26 29 25 29 29 29 29 27 28 28 34 37 33 40 37 34 32 36 40 39
30 24 23 20 21 22 19 17 15 15 15 15 16 16 17 18 20 20 19 24 20 24 25 26 29 30 30 28 27 31 32 32 35 36 35 32 40 42 42 40 34 30 31
31 29 23 21 21 19 19 25 21 20 17 16 18 18 18 23 23 24 25 25 25 23 25 30 31 30 29 25 31 32 36 38 39 39 39 36 39 34 29 31 27 38 37
27 29 27 24 23 21 31 28 28 23 18 15 16 15 17 21 19 28 30 30 29 32 32 31 32 35 35 32 34 36 39 42 46 36 40 47 38 35 30 27 33 42 35
22 23 20 21 27 30 29 29 29 26 23 18 19 16 13 26 28 30 32 32 34 36 40 42 44 39 41 39 42 43 41 43 47 48 40 43 39 35 36 33 43 41 29
16 12 14 13 15 16 17 22 23 29 31 28 29 29 27 32 34 31 32 35 36 31 31 35 39 46 49 53 52 53 54 53 46 39 38 46 42 41 36 38 40 44 27
24 27 28 26 18 15 13 10 11 17 23 23 22 22 17 15 11 18 29 33 30 26 24 41 45 45 48 47 46 48 36 40 41 38 35 45 36 38 38 41 26 34 45
37 37 33 29 23 17 17 13 9 7 11 11 11 9 10 14 16 15 17 21 28 28 28 27 27 26 27 27 27 32 24 31 35 37 30 45 43 38 43 31 28 41 36
Wind_Direction_850mb
116 118 112 110 104 88 80 65 63 67 68 74 83 82 76 75 78 83 73 81 87 88 88 85 80 72 64 56 47 38 31 27 21 17 9 360 351 340 327 316 305 298 289
114 113 106 107 96 95 87 72 76 80 80 74 75 82 80 76 81 87 92 79 86 88 88 85 78 70 62 51 38 30 26 22 18 15 13 12 7 359 350 336 330 308 293
134 118 115 119 114 106 87 65 79 84 83 78 74 68 72 79 81 89 88 99 75 88 89 85 77 67 55 43 35 28 25 20 18 17 17 17 14 8 4 357 345 338 307
134 115 103 121 129 108 91 99 100 93 84 80 76 75 79 86 95 92 96 98 100 93 67 78 76 68 57 45 35 27 23 20 17 20 23 22 21 15 12 12 5 358 354
139 119 119 124 124 115 115 106 87 93 83 73 63 64 87 102 94 104 96 92 96 96 97 75 74 56 48 38 29 21 15 13 19 21 25 23 23 21 19 18 13 6 12
156 134 120 123 125 119 108 117 101 72 80 31 83 88 102 99 105 106 109 99 107 85 82 84 50 28 40 32 25 19 16 15 22 23 23 22 23 24 24 23 18 18 20
139 136 144 118 127 140 134 93 61 63 61 41 111 110 106 91 92 104 117 121 132 100 102 74 54 43 22 25 21 21 20 21 21 22 21 17 19 22 23 26 26 16 9
158 144 147 142 146 163 150 127 100 91 59 75 109 131 139 125 108 116 122 122 143 124 103 59 48 42 37 26 16 23 21 18 13 15 15 13 13 13 18 24 26 27 22
185 173 167 170 163 133 164 119 90 101 84 63 70 89 186 112 157 123 89 128 127 127 106 28 18 12 21 20 23 13 15 15 16 14 12 15 14 10 8 16 21 26 28
194 188 186 181 166 176 175 159 112 103 103 100 81 70 72 98 70 152 121 116 137 109 326 17 351 356 8 10 1 4 7 8 8 10 12 13 11 9 2 4 11 17 25
195 209 196 189 188 160 200 183 153 146 90 100 107 95 68 64 58 84 104 99 150 57 343 356 350 3 355 3 355 354 357 1 2 3 2 360 358 357 357 353 359 4 12
199 190 188 197 206 203 213 197 195 181 156 126 101 85 86 70 53 43 73 64 315 332 332 344 335 347 355 354 342 343 350 356 359 355 348 348 351 350 354 349 342 350 359
190 214 203 207 218 208 205 205 211 206 203 192 158 120 38 41 36 22 353 18 314 324 325 330 1 7 338 343 329 340 343 343 349 350 340 338 346 348 350 350 336 335 344
195 199 198 199 196 187 207 217 227 212 234 239 245 234 256 302 338 342 334 327 304 258 290 301 312 320 326 324 326 330 327 325 333 333 330 333 340 342 345 349 343 326 332
205 209 195 193 191 191 204 212 204 217 230 241 258 266 255 267 280 282 294 301 302 298 295 310 310 311 316 320 313 319 321 311 318 317 314 318 327 332 336 342 348 338 320
197 204 202 215 214 219 220 226 233 237 235 236 248 256 253 256 272 280 279 278 280 282 288 287 302 300 301 312 312 314 320 335 327 324 325 322 322 326 331 335 336 340 339
224 208 215 211 210 225 237 232 221 220 232 238 243 259 262 257 263 271 278 275 273 276 281 287 289 300 308 314 312 318 330 331 321 319 335 334 332 329 331 326 325 325 324
240 225 221 224 243 248 244 225 216 227 236 242 246 249 256 267 274 286 279 275 268 271 279 289 299 309 310 315 316 323 323 324 314 320 325 332 327 324 323 316 314 315 318
242 245 247 248 239 239 228 230 218 220 232 238 237 245 250 262 275 267 266 271 288 288 291 293 296 306 308 315 314 322 321 326 328 315 325 326 317 322 319 309 308 309 313
245 246 248 245 239 239 236 235 241 241 243 247 248 255 261 262 272 273 272 269 282 281 286 296 297 303 306 309 310 319 317 321 318 322 319 322 326 327 328 331 325 323 323
239 241 237 241 238 233 238 236 238 245 246 243 247 263 272 267 268 272 273 277 274 281 286 288 293 298 305 310 308 313 314 313 318 319 314 316 320 317 318 321 317 321 327
219 222 230 236 236 222 241 246 245 245 245 241 244 253 253 272 265 260 261 264 275 286 287 285 288 291 296 302 304 300 303 308 310 313 309 312 316 314 315 318 293 306 319
211 218 220 221 246 250 251 246 244 240 241 240 237 239 243 256 272 278 282 281 276 279 279 281 283 284 287 293 290 299 302 300 301 302 314 314 318 315 313 310 304 309 310
177 171 211 219 236 244 246 240 235 232 236 248 263 266 266 275 281 286 286 285 282 279 281 280 280 283 287 289 293 294 297 301 302 311 308 303 310 309 313 312 310 313 312
233 231 233 232 231 244 246 238 236 239 241 248 253 262 262 277 290 314 313 304 297 293 287 289 287 289 291 292 293 295 301 293 295 301 305 302 306 306 307 311 320 317 320
222 237 247 243 230 234 235 226 190 192 218 222 216 222 260 285 301 314 318 318 314 308 307 302 308 317 320 319 330 325 317 309 305 305 301 301 307 308 307 301 302 306 308